Temperature
26 23 22 23 24 24 26 26 26 27 27 26 24 22 21 20 19 18 17 17 17 17 17 18 18 19 19 20 20 19 18 18 18 17 17 18 18 18 18 19 19 19 19 19
23 23 25 26 27 27 27 26 26 26 27 26 23 20 19 19 17 17 16 15 15 15 16 17 17 18 18 19 19 19 18 18 18 17 18 18 18 18 18 19 19 19 19 19
25 25 27 27 27 27 27 26 26 26 25 24 24 20 19 18 17 16 15 15 14 14 15 16 16 17 17 17 17 17 17 17 17 17 17 18 18 18 18 18 19 19 19 19
24 25 26 26 26 27 25 27 27 26 24 21 23 20 18 17 16 16 15 15 14 14 15 15 16 16 16 16 16 16 16 16 16 16 17 17 18 18 18 18 18 18 18 18
23 24 24 25 26 27 27 27 26 25 23 21 20 20 18 17 16 15 15 15 15 15 15 15 16 16 16 16 16 16 16 16 16 16 16 17 17 17 18 18 18 18 18 18
24 25 25 25 26 26 26 25 23 20 19 20 20 19 17 16 16 15 15 15 15 15 16 16 16 16 16 16 16 16 16 16 16 16 16 16 16 16 17 17 17 17 17 17
23 24 25 26 25 26 25 21 19 20 18 19 19 18 16 16 16 16 15 15 15 16 16 16 16 16 16 16 16 16 16 15 15 15 15 15 15 15 15 15 15 16 16 16
21 22 24 26 25 24 25 21 20 20 20 19 18 17 16 17 16 16 16 16 16 16 16 16 16 16 16 16 16 16 15 15 15 15 14 14 14 14 14 14 14 14 14 14
21 22 25 26 26 25 24 22 21 19 20 18 18 17 16 16 16 16 16 16 16 16 16 16 16 16 16 15 15 15 15 15 14 14 14 14 13 13 13 13 13 12 13 13
23 23 24 25 24 24 23 22 19 19 19 19 19 17 16 16 16 16 16 16 16 16 16 16 16 16 16 15 15 15 14 14 14 13 13 13 13 12 12 12 12 12 12 12
22 21 22 22 23 23 22 21 19 17 18 18 18 17 17 16 15 15 15 16 17 17 17 16 16 16 16 15 15 14 14 13 13 13 13 12 12 12 12 11 11 11 11 11
22 18 19 21 22 23 22 21 19 18 18 17 16 16 17 16 16 16 16 17 17 16 16 16 15 15 14 14 14 14 13 13 13 12 12 12 12 11 11 11 11 11 10 10
22 19 18 19 20 21 21 21 19 17 16 16 16 17 17 16 16 16 16 16 16 16 15 15 14 14 14 14 13 13 13 13 12 12 12 12 11 11 11 11 11 10 10 10
21 18 19 19 19 20 20 20 19 17 16 16 17 16 14 15 14 15 15 15 15 14 14 14 14 13 13 13 13 13 12 12 12 12 12 11 11 11 11 11 10 10 10 10
19 19 20 20 21 20 20 20 20 18 18 17 17 15 14 14 14 14 15 14 14 14 13 13 13 13 13 13 12 12 12 12 12 11 11 11 11 11 11 10 10 10 10 10
18 19 19 19 21 20 19 19 19 19 18 17 16 14 14 15 14 14 14 14 13 13 13 13 13 13 12 12 12 12 12 11 11 11 11 11 11 10 10 10 10 10 10 10
19 19 19 18 20 20 17 18 18 17 16 15 14 14 13 13 13 14 14 14 13 13 13 13 12 12 12 11 11 11 11 10 10 10 10 10 10 10 10 10 9 9 9 9
19 18 16 17 18 18 18 19 18 17 15 15 14 14 13 13 13 14 13 13 13 13 12 12 11 11 11 10 10 10 9 9 9 9 9 9 9 9 9 9 9 9 9 9
18 18 17 16 18 18 18 18 18 17 15 14 13 12 13 13 12 12 13 13 12 12 11 11 10 10 9 9 8 8 8 8 8 7 7 7 7 7 7 8 8 8 8 8
18 16 16 17 18 17 17 18 18 17 14 13 13 12 13 12 9 10 13 12 11 11 10 9 9 8 8 7 7 6 6 6 6 6 6 6 6 6 6 6 7 7 7 7
18 16 16 16 17 16 16 17 16 13 13 14 14 13 13 11 11 12 12 11 10 9 9 8 7 7 6 6 6 5 5 5 5 5 5 5 5 5 5 6 6 6 6 7
17 16 16 15 15 16 16 16 14 13 14 14 14 13 13 12 12 12 11 10 9 8 8 7 6 6 6 5 5 5 5 5 5 5 5 5 5 5 5 5 5 5 6 6
16 15 14 14 14 15 16 15 15 15 14 14 13 13 12 12 11 10 10 9 8 7 7 6 5 5 5 5 5 5 5 5 5 5 5 5 5 5 5 5 5 5 5 5
17 16 15 15 15 16 15 15 15 14 14 13 13 12 12 11 10 9 9 8 7 7 6 5 5 5 5 5 5 5 5 5 5 5 5 5 5 5 5 5 5 5 5 5
17 16 15 15 15 16 15 15 14 14 13 13 12 12 11 10 9 9 8 7 7 6 5 5 5 5 5 5 5 5 5 5 5 5 5 5 5 5 5 5 5 5 5 5
16 15 14 14 15 14 15 14 14 13 13 12 12 11 10 10 9 8 7 7 6 6 5 5 5 5 5 5 6 6 6 5 5 5 5 5 5 5 5 5 5 5 5 5
Wind_Speed
3 3 7 11 10 11 7 4 5 5 6 9 12 14 17 16 18 16 13 12 11 10 8 8 7 6 6 5 7 5 1 1 0 1 2 2 2 3 2 3 5 7 8 9
3 5 11 10 7 6 4 3 5 5 6 8 12 17 17 20 20 18 16 14 11 9 8 7 6 6 5 4 5 3 1 1 1 2 3 2 2 3 3 3 4 6 7 8
4 4 8 8 8 6 5 3 3 5 6 8 7 8 13 14 17 18 17 13 11 9 7 6 7 7 8 9 7 5 4 4 3 3 3 2 1 1 1 2 3 4 5 7
4 7 10 10 8 4 5 5 3 4 4 4 3 2 5 8 14 15 14 11 9 7 7 7 8 10 10 9 8 8 7 6 5 4 2 1 1 2 2 2 3 3 4 5
5 6 8 7 7 5 4 4 3 3 1 1 3 4 2 4 9 9 9 8 6 4 5 6 7 8 8 7 7 7 8 8 7 6 5 4 3 3 2 2 3 2 3 5
4 4 4 4 7 4 2 6 8 7 5 3 4 3 3 2 4 4 5 5 3 2 3 4 6 6 6 6 6 6 7 7 7 7 7 7 6 6 6 5 4 4 4 3
7 7 5 2 5 7 6 7 6 7 6 3 2 5 1 4 7 7 7 6 5 4 3 3 4 4 3 3 3 3 4 4 5 5 6 6 6 6 6 6 5 5 4 4
2 7 6 3 2 3 1 7 5 3 4 3 3 2 3 5 5 5 5 6 6 5 4 4 4 4 4 4 3 2 1 1 2 2 3 3 4 3 4 5 5 5 4 5
5 6 5 3 3 2 2 1 6 6 0 1 1 2 2 4 4 5 5 5 5 6 6 6 6 6 7 7 6 6 5 3 3 2 2 2 3 3 4 5 4 4 5 5
5 2 5 5 7 6 3 2 6 5 1 2 2 3 5 9 9 7 5 4 4 4 5 6 6 7 8 8 7 6 6 6 6 6 6 5 5 5 5 4 5 5 5 5
4 3 6 6 4 3 6 5 5 3 3 3 2 4 3 8 7 5 4 4 4 4 4 5 6 7 7 6 6 7 7 7 8 8 8 8 8 8 7 6 7 7 6 6
4 5 3 5 5 2 4 2 3 2 2 2 1 4 3 3 3 2 0 1 3 5 6 6 7 6 5 5 6 7 8 9 10 10 10 10 10 9 8 9 9 8 8 7
4 6 5 9 9 7 7 6 5 6 4 4 2 5 4 3 3 4 4 6 7 8 8 7 6 5 5 6 8 9 10 11 11 11 11 11 11 11 11 11 11 10 9 9
5 5 4 2 6 3 6 9 9 7 4 2 1 3 8 7 7 7 8 9 8 7 6 6 6 7 8 9 9 10 11 11 11 11 11 12 13 13 13 12 12 11 10 10
6 4 4 2 5 10 10 10 10 9 5 3 2 3 5 6 6 7 8 10 8 7 9 10 9 9 9 10 10 10 11 11 11 11 12 13 14 13 13 12 12 12 11 12
5 4 6 4 7 11 11 10 8 7 6 3 3 2 5 6 6 9 11 10 9 10 12 12 12 12 12 12 12 11 11 11 11 11 12 12 12 12 12 12 12 12 12 12
2 4 4 4 4 4 7 7 6 5 5 5 3 4 7 8 9 10 11 9 11 14 15 14 13 13 13 12 12 12 11 11 10 11 11 11 11 12 12 12 11 11 12 11
5 3 3 2 6 3 3 2 5 5 6 5 2 5 6 8 9 8 9 10 13 14 14 14 12 12 12 11 11 11 11 11 11 11 11 11 11 11 11 11 11 10 9 9
5 6 4 3 2 2 0 4 4 1 3 4 4 7 9 9 7 7 10 11 13 14 13 12 12 13 12 12 13 13 14 13 13 13 12 11 10 11 10 10 10 9 8 8
6 7 6 3 2 3 3 6 4 2 2 3 6 8 9 9 9 8 11 12 11 11 11 11 10 11 12 13 13 14 14 14 14 14 13 12 11 11 11 11 9 8 8 9
5 6 5 3 1 2 4 6 5 4 7 7 6 7 8 7 8 11 13 11 10 11 11 10 12 12 13 14 14 15 16 16 16 15 14 14 13 12 12 11 9 9 8 8
4 3 2 2 2 5 4 4 3 5 6 6 6 7 8 9 11 11 11 11 12 11 11 12 13 15 15 14 15 17 18 18 16 16 15 15 13 12 12 9 9 8 8 9
4 7 6 6 5 5 1 4 5 5 4 5 6 8 8 9 9 10 10 11 11 12 13 13 15 17 17 15 15 18 19 18 16 15 15 14 13 11 10 9 9 8 7 7
3 4 4 3 3 5 4 2 0 1 3 5 6 7 8 8 10 10 10 11 12 12 14 15 17 19 19 18 18 17 18 16 15 14 13 11 10 9 9 8 7 7 6 7
5 5 4 2 1 1 3 3 2 3 5 7 7 7 8 8 9 9 10 11 12 13 14 15 17 19 20 20 19 18 16 15 14 13 11 10 8 8 7 6 6 7 7 7
1 6 6 5 6 4 5 4 3 5 6 7 8 9 8 7 9 9 11 11 13 16 16 17 18 19 19 19 18 17 15 14 12 11 9 7 6 5 5 4 4 6 7 9
Wind_Direction
291 133 242 248 221 219 250 286 320 324 347 38 53 60 53 56 61 62 59 63 70 66 56 57 61 73 80 73 82 82 69 289 329 302 297 291 281 273 259 222 194 179 170 164
329 247 245 256 294 299 306 353 344 331 359 38 69 72 66 60 60 58 53 48 46 51 49 47 49 54 58 69 84 101 57 298 243 244 251 241 231 256 250 234 203 186 173 168
218 295 333 335 322 336 337 347 333 333 10 27 79 67 66 65 65 64 60 52 46 50 54 53 52 54 57 45 35 33 16 0 338 287 268 293 322 307 332 266 231 212 186 175
8 335 349 341 322 333 312 300 334 348 18 336 55 107 74 70 61 60 60 52 42 36 45 52 55 55 54 47 38 34 32 29 6 348 342 305 248 250 251 252 248 239 216 198
318 318 331 319 299 320 270 307 6 353 13 352 6 112 82 71 61 63 68 69 55 36 54 64 66 66 60 50 42 35 33 31 23 27 21 20 5 327 322 335 329 302 262 232
280 272 249 261 297 296 306 23 21 35 55 10 324 108 25 40 108 110 106 106 113 121 91 82 77 73 65 56 50 43 38 28 18 24 24 24 12 358 1 358 342 326 314 293
326 319 300 269 314 336 48 62 21 359 2 300 2 92 152 148 152 158 157 163 175 183 159 122 101 94 100 91 76 61 50 27 15 22 19 16 10 5 2 349 335 330 327 322
301 306 302 307 237 247 318 120 141 219 248 279 11 107 188 172 176 183 177 176 180 183 177 163 167 174 182 181 173 162 135 349 351 8 356 354 354 350 339 334 332 332 325 314
199 263 302 321 325 125 27 297 174 152 326 66 199 129 187 196 205 203 193 183 180 178 180 187 195 199 205 206 207 199 194 218 254 270 283 293 309 315 313 315 320 318 318 321
163 248 318 336 27 21 110 116 63 68 50 321 282 208 200 198 219 219 208 192 190 184 191 202 212 220 221 216 212 202 196 208 225 235 243 245 246 251 260 277 290 295 300 310
96 83 333 3 15 357 14 23 69 92 144 144 306 289 238 200 208 201 204 204 212 230 242 251 253 248 243 228 213 206 211 217 228 234 238 241 242 241 241 249 258 264 272 285
42 93 354 311 306 12 47 11 110 111 333 82 113 291 291 187 181 153 91 337 308 301 296 294 296 299 295 265 244 234 232 231 234 235 237 241 244 243 242 245 248 250 256 264
66 76 28 347 347 4 23 19 60 103 86 67 57 316 356 34 27 19 7 344 327 325 329 332 334 321 288 265 254 249 245 241 242 239 238 243 245 243 242 243 244 242 244 251
93 78 125 223 275 330 54 54 54 79 80 56 41 338 4 14 9 1 352 334 326 335 337 326 309 291 276 266 258 255 253 249 247 243 239 241 244 243 242 242 242 240 237 240
81 51 354 3 80 85 75 65 65 72 81 86 340 93 7 355 350 335 328 325 330 331 320 309 298 287 278 272 266 260 256 253 248 242 239 239 240 241 241 240 240 239 237 239
72 58 24 24 99 96 72 53 49 50 43 34 67 77 321 323 336 335 330 326 320 315 311 305 298 292 286 280 277 272 267 261 251 244 242 240 239 238 236 236 236 236 236 238
79 80 47 333 316 79 32 25 48 44 40 69 53 311 315 330 330 320 316 313 309 312 311 306 301 296 294 291 289 288 283 278 268 258 253 246 239 236 234 235 233 231 233 234
132 105 105 7 23 38 215 63 71 97 91 60 21 311 312 307 299 293 299 301 304 304 305 305 305 304 301 300 303 300 297 293 285 277 270 261 251 244 236 230 228 228 227 225
133 125 89 71 15 182 3 7 5 345 151 48 359 330 321 310 312 292 283 290 295 299 304 306 309 311 314 314 314 311 306 300 294 288 282 278 272 264 249 235 228 224 222 224
51 79 91 68 12 249 274 320 317 21 209 350 355 329 316 332 333 303 300 302 304 307 310 315 320 319 317 315 314 312 308 304 298 293 288 282 274 270 260 245 235 229 223 226
32 40 65 65 300 256 299 324 35 57 280 301 310 309 311 310 282 291 308 314 316 317 318 321 319 316 312 309 308 304 301 297 294 291 286 281 273 265 261 251 241 234 231 227
127 110 102 94 3 274 321 42 77 240 258 285 295 299 299 294 294 304 313 317 322 323 320 319 317 315 311 308 306 304 300 297 295 291 286 281 272 267 268 252 243 233 226 225
150 174 176 175 205 219 138 145 195 211 264 287 295 303 306 310 310 316 318 321 321 319 319 319 319 317 315 312 308 305 303 301 297 292 288 282 274 263 258 252 246 237 224 222
245 152 113 119 161 168 150 144 357 333 318 313 316 315 322 321 320 324 323 323 322 322 323 325 324 322 321 319 315 308 305 304 298 293 289 285 277 265 256 250 241 234 225 221
197 136 118 160 198 159 345 346 354 9 358 344 333 325 329 331 328 325 324 324 325 326 326 326 325 323 320 319 318 316 313 310 305 300 294 289 279 267 258 248 238 231 225 216
186 151 153 209 220 194 256 286 30 26 353 339 337 333 333 336 328 329 327 325 327 328 328 327 326 323 321 321 321 321 321 319 316 313 308 299 288 277 263 252 256 239 235 236
Height
1492 1498 1502 1495 1491 1491 1489 1490 1491 1482 1472 1474 1482 1489 1491 1490 1490 1493 1494 1494 1494 1494 1495 1494 1494 1494 1493 1492 1491 1490 1489 1487 1489 1490 1492 1494 1496 1499 1501 1502 1503 1505 1505 1506
1497 1499 1488 1483 1481 1482 1484 1489 1489 1481 1473 1477 1489 1499 1499 1498 1500 1502 1503 1504 1503 1500 1498 1497 1496 1495 1494 1493 1491 1490 1490 1489 1490 1492 1493 1495 1497 1498 1499 1500 1500 1501 1502 1503
1497 1492 1483 1482 1482 1483 1484 1486 1486 1484 1479 1480 1486 1504 1505 1506 1504 1505 1507 1510 1510 1508 1504 1499 1497 1496 1494 1492 1492 1492 1491 1490 1491 1492 1493 1493 1495 1496 1497 1497 1498 1499 1499 1500
1493 1488 1485 1484 1484 1482 1490 1477 1477 1479 1490 1501 1494 1515 1514 1512 1510 1509 1510 1511 1513 1511 1506 1501 1498 1495 1494 1495 1495 1494 1493 1493 1493 1493 1492 1493 1494 1494 1494 1495 1495 1495 1495 1496
1495 1488 1487 1488 1483 1479 1481 1474 1476 1481 1489 1501 1501 1513 1520 1514 1517 1516 1513 1512 1513 1512 1508 1503 1500 1498 1497 1498 1497 1496 1496 1496 1494 1494 1493 1493 1493 1492 1491 1491 1491 1491 1491 1491
1489 1484 1484 1482 1477 1476 1475 1479 1484 1493 1502 1515 1510 1515 1524 1519 1518 1517 1514 1512 1511 1511 1509 1505 1502 1500 1500 1500 1499 1499 1498 1497 1495 1494 1492 1491 1490 1488 1488 1487 1487 1486 1486 1486
1496 1486 1481 1479 1481 1478 1480 1499 1519 1520 1528 1525 1513 1518 1524 1515 1512 1512 1510 1509 1508 1510 1508 1506 1503 1502 1502 1501 1500 1499 1498 1497 1495 1493 1491 1489 1487 1486 1484 1483 1482 1481 1481 1480
1512 1507 1486 1479 1482 1486 1484 1497 1521 1530 1530 1525 1516 1522 1520 1513 1512 1511 1509 1509 1509 1509 1508 1506 1504 1503 1502 1501 1499 1498 1497 1495 1493 1491 1489 1487 1485 1483 1481 1480 1478 1476 1475 1474
1512 1508 1484 1479 1477 1480 1488 1493 1495 1512 1514 1525 1524 1522 1519 1514 1512 1511 1510 1509 1509 1508 1507 1505 1503 1502 1500 1498 1497 1495 1493 1492 1490 1488 1486 1484 1482 1479 1477 1475 1473 1472 1470 1468
1496 1503 1490 1482 1479 1480 1482 1487 1501 1513 1525 1530 1523 1522 1523 1517 1513 1510 1510 1509 1508 1507 1506 1503 1501 1499 1497 1494 1492 1490 1489 1488 1486 1484 1482 1479 1477 1475 1473 1471 1469 1467 1465 1463
1492 1504 1500 1491 1492 1492 1490 1493 1502 1513 1518 1528 1532 1528 1510 1510 1509 1510 1510 1509 1508 1507 1504 1502 1499 1496 1493 1490 1488 1487 1485 1483 1481 1479 1477 1475 1472 1470 1468 1466 1464 1462 1460 1458
1493 1506 1512 1501 1491 1487 1490 1494 1502 1517 1519 1522 1531 1530 1508 1508 1509 1510 1510 1510 1508 1506 1503 1500 1496 1493 1490 1487 1485 1483 1481 1479 1476 1474 1471 1469 1466 1463 1461 1460 1458 1456 1455 1453
1495 1510 1524 1518 1509 1498 1498 1496 1499 1509 1520 1525 1533 1530 1511 1511 1512 1512 1511 1509 1507 1503 1500 1497 1493 1490 1487 1484 1481 1478 1475 1472 1469 1466 1463 1461 1459 1456 1454 1453 1452 1450 1449 1447
1493 1511 1521 1528 1520 1507 1508 1505 1503 1510 1524 1526 1525 1524 1519 1515 1514 1512 1510 1507 1503 1500 1496 1493 1489 1485 1482 1478 1474 1470 1467 1464 1460 1457 1454 1452 1450 1448 1446 1445 1444 1443 1442 1441
1497 1511 1508 1508 1505 1506 1509 1509 1508 1513 1516 1523 1521 1522 1522 1517 1514 1511 1507 1503 1499 1495 1491 1487 1483 1478 1474 1470 1466 1461 1457 1454 1451 1448 1445 1443 1441 1439 1437 1436 1435 1434 1433 1432
1501 1509 1511 1513 1507 1508 1513 1512 1511 1512 1514 1517 1519 1522 1517 1514 1511 1507 1502 1498 1494 1489 1485 1480 1475 1470 1465 1460 1456 1451 1447 1444 1440 1437 1434 1432 1430 1429 1427 1426 1425 1424 1424 1424
1504 1509 1516 1520 1510 1510 1525 1518 1516 1518 1518 1520 1524 1523 1516 1512 1508 1504 1499 1494 1490 1485 1479 1474 1468 1463 1457 1452 1446 1441 1437 1433 1429 1426 1423 1421 1419 1417 1416 1415 1415 1414 1414 1414
1504 1511 1520 1523 1522 1531 1526 1514 1513 1517 1521 1519 1519 1517 1514 1510 1505 1501 1497 1492 1485 1479 1473 1467 1461 1455 1449 1444 1438 1432 1427 1422 1418 1414 1411 1409 1407 1405 1404 1404 1403 1404 1404 1404
1499 1507 1520 1528 1529 1526 1520 1515 1514 1516 1519 1519 1517 1513 1509 1505 1500 1496 1493 1488 1482 1475 1468 1462 1456 1449 1442 1435 1429 1423 1416 1411 1406 1402 1399 1396 1394 1392 1391 1391 1392 1392 1393 1394
1503 1507 1520 1527 1529 1532 1526 1515 1511 1512 1519 1516 1513 1510 1505 1500 1499 1492 1486 1481 1475 1470 1463 1456 1449 1442 1435 1427 1420 1413 1407 1401 1396 1391 1387 1384 1382 1380 1379 1379 1380 1381 1382 1384
1515 1519 1526 1529 1530 1526 1520 1514 1513 1525 1525 1514 1511 1507 1503 1499 1496 1488 1481 1476 1470 1464 1457 1450 1442 1435 1427 1419 1412 1404 1397 1391 1386 1380 1376 1372 1370 1368 1367 1367 1368 1370 1371 1373
1519 1525 1527 1530 1534 1531 1517 1515 1519 1521 1514 1512 1508 1504 1500 1495 1490 1484 1478 1471 1465 1458 1450 1443 1434 1426 1418 1411 1404 1395 1388 1382 1376 1370 1365 1361 1359 1357 1357 1357 1357 1359 1361 1363
1514 1517 1520 1523 1526 1518 1516 1516 1515 1514 1511 1508 1505 1500 1496 1490 1485 1479 1473 1467 1460 1452 1444 1436 1428 1419 1411 1404 1397 1388 1380 1373 1366 1361 1356 1352 1349 1348 1347 1348 1348 1350 1352 1354
1510 1508 1513 1516 1516 1515 1515 1513 1512 1510 1508 1505 1501 1497 1492 1487 1481 1475 1469 1462 1454 1446 1438 1430 1422 1413 1405 1397 1390 1382 1374 1366 1359 1353 1348 1344 1341 1340 1340 1340 1341 1342 1344 1346
1506 1508 1512 1514 1513 1513 1512 1511 1509 1506 1504 1501 1497 1494 1489 1483 1478 1472 1465 1457 1450 1442 1434 1426 1418 1409 1400 1392 1384 1376 1368 1361 1354 1348 1342 1338 1336 1334 1334 1334 1335 1336 1338 1341
1504 1507 1512 1514 1510 1510 1510 1508 1505 1503 1501 1498 1494 1490 1485 1481 1475 1469 1461 1454 1446 1438 1430 1422 1414 1405 1397 1389 1381 1373 1365 1358 1351 1344 1339 1335 1333 1331 1330 1330 1331 1333 1335 1337